Regional Weather Roundup
Issued by NWS Kansas City/Pleasant Hill, MO

Home | Current Version | Previous Version | Graphics & Text | Print | Product List | Glossary Off
Versions: 1 2 3 4 5 6 7 8 9 10 11 12 13 14 15 16 17 18 19 20 21 22 23 24 25 26 27 28 29 30 31 32 33 34 35 36 37 38 39 40 41 42 43 44 45 46 47 48 49 50

000
ASUS43 KEAX 252310
RWREAX

WEATHER ROUNDUP FOR EASTERN KANSAS AND NORTHWEST MISSOURI
NATIONAL WEATHER SERVICE KANSAS CITY/PLEASANT HILL MO
600 PM CDT SAT MAR 25 2017

KSZ040-057-103>105-MOZ028-029-037-043-260000-
...KANSAS CITY METROPOLITAN AREA...

CITY           SKY/WX    TMP DP  RH WIND       PRES   REMARKS
K.C. INTL      CLOUDY    49  47  93 N9        29.84R
K.C. DOWNTOWN  CLOUDY    53  47  79 NW9       29.83R
LEES SUMMIT    CLOUDY    55  50  83 NW12      29.82R
OLATHE - IXD   CLOUDY    50  47  89 NW14      29.84S
OLATHE - OJC   LGT RAIN  51  48  89 N14       29.83R
LAWRENCE       CLOUDY    49  46  90 NW13      29.87R

$$

MOZ001>008-011>017-020>025-030>033-038>040-044>046-053-054-260000-
...NORTHERN AND CENTRAL MISSOURI...

CITY           SKY/WX    TMP DP  RH WIND       PRES   REMARKS
ST. JOSEPH     CLOUDY    47  45  93 N12       29.87R
MOSBY          CLOUDY    52  46  82 N12       29.83R
WARRENSBURG    RAIN      54  52  94 N8        29.80R
WHITEMAN AFB   HVY RAIN  55  55 100 N12       29.79R FOG
CLINTON        LGT RAIN  50  50 100 SW14      29.83R
SEDALIA        LGT RAIN  57  56  96 W10       29.79R
WARSAW         NOT AVBL
CHILLICOTHE      N/A     50  48  93 N7        29.84R
KIRKSVILLE     CLOUDY    50  49  96 N10       29.83R FOG

$$

MOZ041-047>049-056>058-063>065-088>090-097-260000-
...EASTERN AND SOUTHERN MISSOURI...

CITY           SKY/WX    TMP DP  RH WIND       PRES   REMARKS
ST. LOUIS INTL CLOUDY    66  56  70 SE16G25   29.79S
SPIRIT OF STL  TSTM      61  59  93 VRB3      29.78R FOG
COLUMBIA       LGT RAIN  57  56  96 NE5       29.76F
JEFFERSON CITY CLOUDY    61  55  81 E5        29.76F
ROLLA          CLOUDY    58  56  93 SW12      29.76R
OSAGE BEACH    RAIN     N/A N/A N/A SW10      29.80R
SPRINGFIELD    CLOUDY    49  46  90 SW13      29.87R FOG
BRANSON        CLOUDY    50  46  87 W9        29.90R
JOPLIN         CLOUDY    48  44  86 W14       29.90R
WEST PLAINS    CLOUDY    56  52  86 SW10      29.85R

$$

IAZ060-094-KSZ022-034>040-054-083-096-NEZ052-066-093-260000-
...KANSAS...SOUTHEAST NEBRASKA AND IOWA...

CITY           SKY/WX    TMP DP  RH WIND       PRES   REMARKS
TOPEKA         CLOUDY    47  46  97 N9        29.88S
MANHATTAN      CLOUDY    46  42  86 NW8       29.91S
EMPORIA        CLOUDY    45  45 100 NW12G20   29.89R FOG
CHANUTE        CLOUDY    49  45  86 NW9       29.88S
WICHITA        CLOUDY    46  41  82 N10       29.91S
OMAHA          CLOUDY    43  37  79 N14       29.93R
LINCOLN        CLOUDY    42  39  89 N12       29.94S
FALLS CITY     CLOUDY    43  41  93 N10       29.89S
LAMONI         CLOUDY    44  42  93 N12       29.85F
DES MOINES     CLOUDY    44  41  89 NE10      29.89F

$$




USA.gov is the U.S. government's official web portal to all federal, state and local government web resources and services.